Hourly Data Report for October 16, 2015

All times are specified in Local Standard Time (LST). Add 1 hour to adjust for Daylight Saving Time where and when it is observed.

GJOA HAVEN A
NUNAVUT

68°38'08.000" N
95°51'01.000" W
46.90 m
2302337
71597
YHK

Download Data

Hourly Data (October 2015)
Hourly Data Report for October 16, 2015
Temp Definition
°C
Dew Point Temp Definition
°C
Rel Hum Definition
%
Wind Dir Definition
10's deg

Wind Spd Definition
km/h
Visibility Definition
km
Stn Press Definition
kPa
Hmdx Definition


Wind Chill Definition


Weather Definition


TIME
00:00 Legend Double Dagger -8.3 -9.4 92 31 30 16.1 100.73   -17 Freezing Rain
01:00 Legend Double Dagger -8.3 -9.4 92 30 28 16.1 100.76   -17 Freezing Rain
02:00 Legend Double Dagger -8.3 -9.4 92 30 26 16.1 100.79   -17 LegendNANA
03:00 Legend Double Dagger -8.1 -9.2 92 31 32 14.5 100.78   -17 LegendNANA
04:00 Legend Double Dagger -7.6 -8.7 92 32 30 16.1 100.82   -16 LegendNANA
05:00 Legend Double Dagger -7.4 -8.5 92 32 34 16.1 100.84   -17 LegendNANA
06:00 Legend Double Dagger -7.2 -8.3 92 31 30 16.1 100.84   -16 LegendNANA
07:00 Legend Double Dagger -7.0 -8.0 93 32 28 16.1 100.85   -15 LegendNANA
08:00 Legend Double Dagger -7.0 -8.0 93 31 26 16.1 100.90   -15 LegendNANA
09:00 Legend Double Dagger -7.1 -8.2 92 32 26 16.1 100.91   -15 LegendNANA
10:00 Legend Double Dagger -7.0 -8.1 92 31 30 16.1 100.90   -16 LegendNANA
11:00 Legend Double Dagger -6.9 -8.1 91 31 26 16.1 100.92   -15 LegendNANA
12:00 Legend Double Dagger -6.7 -7.9 91 30 18 16.1 100.95   -13 LegendNANA
13:00 Legend Double Dagger -6.7 -7.9 91 32 11 16.1 100.98   -12 LegendNANA
14:00 Legend Double Dagger -6.7 -7.9 91 30 11 16.1 101.00   -12 LegendNANA
15:00 Legend Double Dagger -6.6 -7.7 92 29 11 16.1 101.00   -12 LegendNANA
16:00 Legend Double Dagger -6.8 -8.0 91 28 9 16.1 101.02   -11 LegendNANA
17:00 Legend Double Dagger -7.2 -8.1 93 32 5 16.1 101.02   -10 LegendNANA
18:00 Legend Double Dagger -7.1 -7.9 94 31 13 16.1 101.00   -13 LegendNANA
19:00 Legend Double Dagger -7.1 -7.8 95 31 13 16.1 100.98   -13 LegendNANA
20:00 Legend Double Dagger -6.9 -7.3 97 32 15 16.1 100.97   -13 LegendNANA
21:00 Legend Double Dagger -7.0 -7.6 95 33 15 16.1 100.98   -13 LegendNANA
22:00 Legend Double Dagger -7.2 -7.7 96 33 18 16.1 100.98   -14 LegendNANA
23:00 Legend Double Dagger -7.3 -8.0 95 32 18 16.1 101.01   -14 LegendNANA

Notes on Data Quality.

Legend

  • E = Estimated
  • M = Missing
  • NA = Not Available
  • ‡ = Partner data that is not subject to review by the National Climate Archives
Date modified: